This is the latest recevied weather packets stored in our database for station/object K4PAD. If no packets are shown the sender has not sent any weather packets the latest 10 day(s).
| Time | Temp. | Humidity | Pressure | Rain* | Wind** | Luminosity | Snow |
|---|---|---|---|---|---|---|---|
| 1777641771 | 23.89° C | 72% | 1013.7 hPa | 0 mm | - | 187 W/m² | - |
| 1777641466 | 23.33° C | 72% | 1013.7 hPa | 0 mm | - | 189 W/m² | - |
| 1777641162 | 23.33° C | 72% | 1013.8 hPa | 0 mm | - | 231 W/m² | - |
| 1777640858 | 23.33° C | 72% | 1013.6 hPa | 0 mm | - | 239 W/m² | - |
| 1777640556 | 23.33° C | 72% | 1013.3 hPa | 0 mm | - | 233 W/m² | - |
| 1777640252 | 23.33° C | 71% | 1013.3 hPa | 0 mm | - | 408 W/m² | - |
| 1777639948 | 22.78° C | 72% | 1013.3 hPa | 0 mm | - | 274 W/m² | - |
| 1777639645 | 22.22° C | 73% | 1013.3 hPa | 0 mm | - | 378 W/m² | - |
| 1777639343 | 22.22° C | 73% | 1013.2 hPa | 0 mm | - | 273 W/m² | - |
| 1777639038 | 22.22° C | 76% | 1013.4 hPa | 0 mm | - | 216 W/m² | - |
| 1777638734 | 21.67° C | 77% | 1013.2 hPa | 0 mm | - | 206 W/m² | - |
| 1777638425 | 21.11° C | 80% | 1013.1 hPa | 0 mm | - | 150 W/m² | - |
| 1777638123 | 21.11° C | 81% | 1013.4 hPa | 0 mm | - | 99 W/m² | - |
| 1777637818 | 20.56° C | 82% | 1013 hPa | 0 mm | - | 102 W/m² | - |
| 1777637515 | 20.56° C | 82% | 1013.3 hPa | 0 mm | - | 114 W/m² | - |
| 1777637212 | 20.56° C | 82% | 1013 hPa | 0 mm | - | 100 W/m² | - |
| 1777636909 | 20.56° C | 83% | 1012.9 hPa | 0 mm | - | 99 W/m² | - |
| 1777636605 | 20.56° C | 84% | 1013 hPa | 0 mm | - | 86 W/m² | - |
| 1777636301 | 20.56° C | 83% | 1012.9 hPa | 0 mm | - | 74 W/m² | - |
| 1777635996 | 20° C | 83% | 1013 hPa | 0 mm | - | 63 W/m² | - |
| 1777635692 | 20° C | 83% | 1012.9 hPa | 0 mm | - | 49 W/m² | - |
| 1777635389 | 20° C | 84% | 1012.9 hPa | 0 mm | - | 43 W/m² | - |
| 1777635086 | 20° C | 83% | 1012.9 hPa | 0 mm | - | 35 W/m² | - |
| 1777634781 | 20° C | 83% | 1012.9 hPa | 0 mm | - | 30 W/m² | - |
| 1777634479 | 20° C | 84% | 1012.7 hPa | 0 mm | - | 28 W/m² | - |
* Rain latest hour (hover to see other rain measurements)
** Current wind speed in m/s (hover to see current wind gust speed)